Terminal Aerodrome Forecast
Issued by NWS La Crosse, WI

Home | Current Version | Previous Version | Text Only | Print | Product List | Glossary On
Versions: 1 2 3 4 5 6 7 8 9 10 11 12 13 14 15 16 17 18 19 20 21 22 23 24 25 26 27 28 29 30 31 32 33 34 35 36 37 38
000
FTUS43 KARX 010330 AAB
TAFLSE
TAF AMD
KLSE 010330Z 0104/0124 04008KT 2SM -SN OVC018
     FM010600 04012KT 1SM -SN OVC010
     FM011500 01012G20KT 4SM -SN OVC015
     FM012100 01012G18KT P6SM -SN OVC020=

USA.gov is the U.S. government's official web portal to all federal, state and local government web resources and services.